Regional Weather Roundup
Issued by NWS Boston, MA

Home | Current Version | Previous Version | Text Only | Print | Product List | Glossary On
Versions: 1 2 3 4 5 6 7 8 9 10 11 12 13 14 15 16 17 18 19 20 21 22 23 24 25 26 27 28 29 30 31 32 33 34 35 36 37 38 39 40 41 42 43 44 45 46 47 48 49 50
000
ASUS41 KBOX 231710
RWRBOX

REGIONAL WEATHER ROUNDUP
NATIONAL WEATHER SERVICE TAUNTON MA
100 PM EDT SAT AUG 23 2014

NOTE:  "FAIR" INDICATES FEW OR NO CLOUDS BELOW 12,000 FEET WITH NO
SIGNIFICANT WEATHER AND/OR OBSTRUCTIONS TO VISIBILITY.  THE FOLLOWING
OBSERVATION LOCATIONS DO NOT REPORT PRESENT WEATHER...PROVINCETOWN...
SMITHFIELD...BLOCK ISLAND...KEENE...AND OXFORD.

MAZALL-231800-
EASTERN MASSACHUSETTS

CITY           SKY/WX    TMP DP  RH WIND       PRES   REMARKS
BOSTON         NOT AVBL
BEVERLY        PTSUNNY   70  58  65 E10       30.12F
LAWRENCE       PTSUNNY   69  57  65 NE13      30.14F
BEDFORD        PTSUNNY   73  57  57 NE14      30.11S
BLUE HILL        N/A     70  56  61 NE13G22   30.12S
NORWOOD        CLOUDY    71  55  56 NE9       30.11S
MARSHFIELD     MOSUNNY   70  63  78 NE8       30.13S
PLYMOUTH       CLOUDY    69  57  65 NE13      30.11S
TAUNTON        CLOUDY    74  55  51 VRB7      30.09F
NEW BEDFORD    CLOUDY    73  57  57 NE12G21   30.09S
$$

MAZALL-231800-
CAPE COD AND THE ISLANDS

CITY           SKY/WX    TMP DP  RH WIND       PRES   REMARKS
FALMOUTH       PTSUNNY   72  59  64 NE14      30.09F
HYANNIS        CLOUDY    72  61  68 N14G23    30.07F
CHATHAM        CLOUDY    71  60  68 NE10G21   30.09S
PROVINCETOWN   MOSUNNY   72  63  73 MISG      30.10F
NANTUCKET      PTSUNNY   71  61  70 N21G26    30.07S
MARTHAS VNYRD  CLOUDY    73  59  61 NE20G26   30.08S
$$

MAZALL-231800-
CENTRAL AND WESTERN MASSACHUSETTS

CITY           SKY/WX    TMP DP  RH WIND       PRES   REMARKS
WORCESTER      CLOUDY    67  55  65 NE7       30.14F
FITCHBURG      CLOUDY    72  56  57 NE6       30.13F
ORANGE         CLOUDY    71  56  58 NE7       30.13F
SPRINGFIELD    PTSUNNY   75  57  53 NE5       30.11F
WESTFIELD      PTSUNNY   75  57  53 CALM      30.11F
NORTH ADAMS    PTSUNNY   70  56  61 MISG      30.13F
PITTSFIELD     CLOUDY    69  56  62 E6        30.13F
$$

RIZALL-231800-
RHODE ISLAND

CITY           SKY/WX    TMP DP  RH WIND       PRES   REMARKS
PROVIDENCE     PTSUNNY   73  55  53 NE14      30.10F
NEWPORT        CLOUDY    73  56  54 NE16G22   30.09F
BLOCK ISLAND   SUNNY     72  59  64 NE13G18   30.09F
SMITHFIELD     CLOUDY    72  54  53 N12       30.11F
WESTERLY       PTSUNNY   75  56  51 NE10G17   30.09F
$$

CTZALL-231800-
CONNECTICUT

CITY           SKY/WX    TMP DP  RH WIND       PRES   REMARKS
BRADLEY INTL   PTSUNNY   73  55  53 VRB5      30.10F
HARTFORD       PTSUNNY   72  55  55 VRB7      30.10F
BRIDGEPORT     MOSUNNY   72  60  66 E9        30.10F
DANBURY        PTSUNNY   71  57  61 E6        30.12F
GROTON         PTSUNNY   74  58  57 NE13      30.08F
NEW HAVEN      PTSUNNY   75  60  59 SE8       30.09F
CHESTER        PTSUNNY   72  57  60 NE8       30.10F
MERIDEN        PTSUNNY   73  56  54 NE9       30.10F
WILLIMANTIC    PTSUNNY   73  55  53 NE13      30.11F
OXFORD         PTSUNNY   72  57  60 NE7       30.13F
$$

MEZ002-015-021-024-NHZ003-005-008-011-012-014-VTZ005-008-231800-
NORTHERN NEW ENGLAND

CITY           SKY/WX    TMP DP  RH WIND       PRES   REMARKS
PORTLAND ME    PTSUNNY   70  58  65 SE10      30.14F
BANGOR ME      PTSUNNY   75  53  46 NE9       30.13F
CONCORD NH     PTSUNNY   72  55  55 NE8       30.13F
MANCHESTER NH  PTSUNNY   71  56  58 E10       30.11F
NASHUA NH      PTSUNNY   72  58  61 E8        30.13F
PORTSMOUTH NH  PTSUNNY   70  56  61 E8        30.12F
JAFFREY NH     CLOUDY    68  56  65 N5        30.15F
KEENE NH       CLOUDY    70  52  52 CALM      30.14F
BURLINGTON VT  PTSUNNY   74  60  61 W5        30.13F
MT. WASHINGTON PTSUNNY   45  41  87 NE13        N/A
$$

NYZ052-076-231800-
EASTERN NEW YORK

CITY           SKY/WX    TMP DP  RH WIND       PRES   REMARKS
ALBANY         PTSUNNY   72  57  59 NE3       30.13F
NEW YORK CITY  PTSUNNY   72  59  63 NE15      30.08F
$$

ANZALL-231800-
MARINE OBSERVATIONS

STATION/POSITION TIME  TEMP    WIND        PRES    VSBY  WAVE
                       AIR SEA DIR/SP/G                  HT/PER
                 (UTC) (F)     (DEG/KT/KT) (MB)    (MI)  (FT/S)
BOSTON BUOY      1650   65 67   40/ 14/ 16 1019.8F         3/ 5
BUZZARDS BAY     1600           40/ 17/ 19 1019.6R
NANTUCKET SOUND  1650   68 71   40/ 16/ 17 1018.0F         2/ 6
MASS BAY-STELLWA 1604   65 66   10/ 12/ 14   N/A    1 7/8  3/ 5
ISLE OF SHOALS   1700   63      50/ 12/ 15 1019.8F
S OF BLOCK IS    1608      68                N/A           3/ 6
$$

......................KEY.........................
  SKY/WX - SKY CONDITION/PRESENT WEATHER
  TMP    - TEMPERATURE IN FAHRENHEIT
  DWPT   - DEWPOINT IN FAHRENHEIT
  RH     - RELATIVE HUMIDITY IN PERCENT
  WIND   - DIRECTION AND SPEED IN MPH
  PRES   - MEAN SEA LEVEL PRESSURE IN INCHES OF HG
  WCI    - WIND CHILL INDEX
  VSB    - VISIBILITY IN MILES
  HX     - HEAT INDEX
  TC     - TEMPERATURE IN CELSIUS
  VRB    - VARIABLE WIND DIRECTION
  N/A    - NOT AVAILABLE


USA.gov is the U.S. government's official web portal to all federal, state and local government web resources and services.